[[{"header":{"parameterUnit":"m.s-1","parameterCategory":1,"la1":30.2991,"la2":30.254,"lo1":-89.0895,"lo2":-89.0444,"dy":0.0017,"dx":0.0017,"nx":28,"ny":28,"refTime":"2023-04-29T21:00:00:Z","depth":0,"parameterNumber":2,"parameterNumberName":"U-component_of_WINDS"},"data":[0,0,0,0,0,0,0,0,0,0,0,0,0,0,0,0,0,0,0,0,0,0,0,0,0,0,0,0,0,0,0,0,0,0,0,0,0,0,0,0,0,0,0,0,0,0,0,0,0,0,0,0,0,0,0,0,0,0,6.2705,6.2704,0,6.2571,6.2569,6.2568,6.2326,6.2322,6.2317,6.2313,6.2178,6.2179,6.218,0,0,0,0,0,0,0,0,0,0,0,0,0,6.2756,6.2757,6.2705,6.2703,6.2702,6.2571,6.2569,6.2568,6.2327,6.2321,6.2316,6.2311,6.2178,6.2179,6.218,0,0,0,0,0,0,0,0,0,0,0,0,0,6.269,6.2757,6.2705,6.2566,6.2552,6.2572,6.2569,6.2567,6.2328,6.2321,6.2314,6.2308,6.2178,6.2179,6.218,6.2325,0,0,6.2183,6.2184,0,0,0,0,0,0,0,0,6.2694,6.2688,6.2588,6.2576,6.256,6.2458,6.2538,6.2486,6.233,6.2413,6.2313,6.2305,6.2277,6.227,6.226,6.2319,6.2313,6.2183,6.2184,6.2184,6.2185,0,0,0,0,0,0,0,6.2699,6.2692,6.2652,6.2587,6.257,6.2511,6.2494,6.2527,6.2386,6.2406,6.2388,6.2375,6.2268,6.2259,6.2255,6.2311,6.2183,6.2184,6.2185,6.2185,6.2485,6.2492,0,0,0,0,0,0,6.2723,6.2698,6.2656,6.2648,6.2611,6.2516,6.2497,6.2498,6.2385,6.2361,6.2381,6.2364,6.2261,6.2254,6.2249,6.2414,6.2184,6.2185,6.2186,6.2478,6.2487,6.2495,0,0,0,0,0,0,6.2725,6.2722,6.2662,6.2668,6.2656,6.2522,6.2526,6.2499,6.249,6.2366,6.234,6.2398,6.2255,6.2248,6.2308,6.2406,6.2186,6.2187,6.247,6.2481,6.2491,6.2744,0,0,0,0,0,0,6.2728,6.2724,6.2777,6.2671,6.2656,6.2723,6.2532,6.2501,6.2492,6.2469,6.2375,6.2353,6.2249,6.2308,6.231,6.2403,6.2188,6.246,6.2475,6.2488,6.2726,6.2762,6.2792,0,0,0,0,0,6.273,6.2854,6.2781,6.2777,6.272,6.2729,6.2721,6.2598,6.2501,6.2554,6.2475,6.2356,6.2395,6.2317,6.2316,6.2411,6.2454,6.2471,6.2486,6.2711,6.2755,6.2792,0,0,0,0,0,0,6.2975,6.2837,6.2755,6.2847,6.2802,6.2688,6.2751,6.2648,6.263,6.2609,6.2458,6.2439,6.2521,6.2471,6.2387,6.2547,6.2406,6.2423,6.2577,6.2617,6.265,6.266,6.2189,0,0,0,0,0,6.304,6.3058,6.2936,6.303,6.3011,6.2886,6.2885,6.2795,6.2742,6.2721,6.2646,6.2601,6.2602,6.2606,6.2601,6.2717,6.2695,6.2783,6.2816,6.2844,6.2861,6.2921,6.296,6.2549,6.2549,6.2549,0,0,6.3174,6.31,6.3121,6.3077,6.3031,6.3054,6.2871,6.2903,6.2919,6.2726,6.2779,6.2724,6.2662,6.2753,6.2788,6.2714,6.2969,6.2865,6.2888,6.289,6.2942,6.2981,6.3016,6.256,6.2558,6.2556,0,0,6.343,6.3375,6.3448,6.3406,6.3338,6.3254,6.3273,6.3175,6.313,6.3181,6.3037,6.3055,6.306,6.3023,6.3006,6.325,6.3141,6.3253,6.3427,6.3487,6.352,6.3547,6.3637,6.367,6.327,6.327,6.3271,0,6.3605,6.3633,6.3498,6.354,6.3526,6.3352,6.3425,6.3391,6.3327,6.3322,6.3239,6.3244,6.319,6.327,6.333,6.3321,6.3338,6.3263,6.3525,6.3552,6.3576,6.366,6.3694,6.3284,6.3283,6.3281,6.328,0,6.3853,6.3875,6.3942,6.3884,6.3877,6.3935,6.381,6.382,6.3731,6.3656,6.3712,6.3641,6.362,6.3632,6.3545,6.37,6.3657,6.3553,6.3407,6.3632,6.3708,6.3739,6.3305,6.33,6.3295,6.3292,0,0,6.4259,6.4126,6.4153,6.4125,6.4039,6.4054,6.4105,6.4083,6.4095,6.4057,6.4097,6.4107,6.401,6.399,6.3898,6.3951,6.4152,6.3839,6.3835,6.3901,6.4321,6.4402,6.4441,6.4078,6.4084,6.4088,6.4327,0,6.4498,6.4576,6.4457,6.4563,6.4583,6.4419,6.4463,6.4416,6.4349,6.4357,6.4281,6.4292,6.4162,6.415,6.4194,6.4118,6.4234,6.4099,6.4116,6.4118,6.4138,6.448,6.4564,6.4793,6.4356,6.436,6.4364,0,6.4787,6.4763,6.4871,6.4779,6.4783,6.4825,6.4797,6.4806,6.475,6.4697,6.4677,6.4567,6.4612,6.4471,6.4532,6.4443,6.4442,6.4406,6.4412,6.441,6.4256,6.4489,6.4862,6.4898,6.4409,6.4405,6.4402,0,6.5075,6.5069,6.5133,6.5114,6.5009,6.5043,6.5001,6.4937,6.4933,6.4908,6.4904,6.4886,6.4877,6.4866,6.4755,6.4662,6.4831,6.468,6.479,6.4793,6.4833,6.4832,6.5214,6.4832,6.4831,6.4831,6.483,0,6.5355,6.5428,6.5261,6.5302,6.5379,6.5242,6.5324,6.5265,6.5211,6.5237,6.5094,6.5123,6.4974,6.4987,6.49,6.4965,6.4962,6.4922,6.4898,6.4935,6.4941,6.4934,6.4916,6.4839,6.4837,6.4836,6.4834,0,6.569,6.5581,6.5641,6.5536,6.5512,6.5574,6.5485,6.5518,6.5442,6.5478,6.5478,6.5359,6.5367,6.5255,6.5241,6.5183,6.5288,6.5235,6.5307,6.5291,6.5408,6.54,6.58,6.5847,6.5434,6.5438,6.5442,0,6.5877,6.5929,6.583,6.5838,6.5802,6.5816,6.581,6.5679,6.5679,6.5621,6.5662,6.5658,6.5648,6.5669,6.5582,6.5571,6.5518,6.5659,6.5516,6.5552,6.5522,6.5522,6.5527,6.569,6.5695,6.57,6.5703,0,6.622,6.6164,6.616,6.614,6.6138,6.6115,6.6083,6.6098,6.5954,6.5963,6.5969,6.5961,6.5947,6.5946,6.5919,6.5876,6.5768,6.5749,6.5774,6.5813,6.5854,6.5835,6.5391,6.574,6.5737,6.5734,6.5732,6.573,6.6487,6.6527,6.6464,6.6466,6.6428,6.6402,6.6429,6.6356,6.6359,6.6337,6.6259,6.628,6.6224,6.6176,6.6144,6.6159,6.609,6.6126,6.6136,6.6147,6.617,6.5851,6.6154,6.6152,6.6151,6.615,6.6149,0,6.6824,6.6776,6.6779,6.6739,6.6742,6.6637,6.6597,6.6607,6.6627,6.6583,6.6577,6.6585,6.6584,6.6498,6.6486,6.6515,6.6465,6.6517,6.6514,6.6506,6.6231,6.6211,6.6557,6.6557,6.6557,6.6557,6.6557,6.6557,6.7,6.7062,6.7,6.7042,6.6993,6.7012,6.6998,6.6974,6.6939,6.6955,6.6953,6.6896,6.6836,6.6819,6.6814,6.6789,6.6792,6.6862,6.682,6.6565,6.6525,6.6488,6.6468,6.6863,6.6864,6.7094,6.7096,6.7098]},{"header":{"parameterUnit":"m.s-1","parameterCategory":1,"la1":30.2991,"la2":30.254,"lo1":-89.0895,"lo2":-89.0444,"dy":0.0017,"dx":0.0017,"nx":28,"ny":28,"refTime":"2023-04-29T21:00:00:Z","depth":0,"parameterNumber":3,"parameterNumberName":"V-component_of_WINDS"},"data":[0,0,0,0,0,0,0,0,0,0,0,0,0,0,0,0,0,0,0,0,0,0,0,0,0,0,0,0,0,0,0,0,0,0,0,0,0,0,0,0,0,0,0,0,0,0,0,0,0,0,0,0,0,0,0,0,0,0,-1.3147,-1.3141,0,-1.2641,-1.2635,-1.2629,-1.2411,-1.2412,-1.2413,-1.2414,-1.187,-1.1855,-1.184,0,0,0,0,0,0,0,0,0,0,0,0,0,-1.3901,-1.3888,-1.3147,-1.3141,-1.3135,-1.2642,-1.2635,-1.2628,-1.2411,-1.2412,-1.2413,-1.2414,-1.1875,-1.1857,-1.1839,0,0,0,0,0,0,0,0,0,0,0,0,0,-1.3502,-1.3884,-1.3148,-1.2968,-1.2947,-1.2643,-1.2634,-1.2626,-1.2411,-1.2412,-1.2414,-1.2415,-1.1881,-1.1859,-1.1836,-1.1667,0,0,-1.1766,-1.1756,0,0,0,0,0,0,0,0,-1.3525,-1.3474,-1.3,-1.298,-1.2955,-1.2591,-1.2701,-1.2303,-1.241,-1.2613,-1.2414,-1.2416,-1.2107,-1.2066,-1.1967,-1.1642,-1.1618,-1.1764,-1.175,-1.174,-1.1734,0,0,0,0,0,0,0,-1.3552,-1.3494,-1.2946,-1.2994,-1.2966,-1.2903,-1.2848,-1.2625,-1.2358,-1.2596,-1.2579,-1.2523,-1.2095,-1.199,-1.1953,-1.161,-1.1765,-1.1744,-1.173,-1.1721,-1.1117,-1.1115,0,0,0,0,0,0,-1.3613,-1.3519,-1.2962,-1.2931,-1.325,-1.2889,-1.2827,-1.2706,-1.236,-1.2309,-1.2523,-1.2515,-1.2028,-1.198,-1.1933,-1.1711,-1.174,-1.1719,-1.1706,-1.1119,-1.1116,-1.1114,0,0,0,0,0,0,-1.363,-1.3566,-1.2982,-1.322,-1.3141,-1.2875,-1.274,-1.2695,-1.259,-1.2305,-1.2254,-1.2466,-1.2027,-1.1965,-1.1736,-1.1689,-1.1708,-1.1688,-1.1122,-1.1118,-1.1115,-1.1267,0,0,0,0,0,0,-1.3653,-1.3573,-1.3512,-1.3221,-1.313,-1.2802,-1.2737,-1.2685,-1.2554,-1.254,-1.2238,-1.2189,-1.2024,-1.1772,-1.1713,-1.1657,-1.167,-1.1125,-1.112,-1.1116,-1.1265,-1.1269,-1.1273,0,0,0,0,0,-1.3681,-1.357,-1.3511,-1.3444,-1.3049,-1.28,-1.2747,-1.2566,-1.2552,-1.2484,-1.23,-1.2199,-1.1704,-1.175,-1.1682,-1.1619,-1.1127,-1.1121,-1.1116,-1.1263,-1.1269,-1.1273,0,0,0,0,0,0,-1.3853,-1.3528,-1.3459,-1.3252,-1.3057,-1.2764,-1.2674,-1.2578,-1.2375,-1.2369,-1.2145,-1.2078,-1.1868,-1.1719,-1.1777,-1.1435,-1.1406,-1.1387,-1.1541,-1.1543,-1.1548,-1.1587,-1.1651,0,0,0,0,0,-1.387,-1.3703,-1.3424,-1.3268,-1.3175,-1.2942,-1.2826,-1.2705,-1.2489,-1.2403,-1.2202,-1.199,-1.1786,-1.1656,-1.1453,-1.1243,-1.1171,-1.1165,-1.1169,-1.1174,-1.116,-1.1034,-1.1028,-1.1097,-1.1097,-1.1097,0,0,-1.3897,-1.3699,-1.3605,-1.3298,-1.3132,-1.2957,-1.2873,-1.2691,-1.2557,-1.2372,-1.2146,-1.1992,-1.1739,-1.152,-1.1412,-1.1389,-1.1125,-1.1168,-1.1174,-1.1156,-1.1028,-1.1022,-1.1017,-1.1094,-1.1094,-1.1095,0,0,-1.3858,-1.3694,-1.3546,-1.3383,-1.3137,-1.2983,-1.2948,-1.2669,-1.2562,-1.2334,-1.2192,-1.2023,-1.1678,-1.1505,-1.1371,-1.1268,-1.1165,-1.1207,-1.1227,-1.1107,-1.1102,-1.1096,-1.1057,-1.1046,-1.1193,-1.1194,-1.1194,0,-1.3921,-1.3661,-1.3479,-1.3307,-1.3174,-1.3008,-1.2852,-1.2699,-1.2395,-1.2303,-1.2285,-1.1849,-1.1666,-1.1403,-1.1379,-1.1276,-1.1223,-1.124,-1.1119,-1.1111,-1.1102,-1.1062,-1.1049,-1.12,-1.12,-1.1199,-1.1198,0,-1.3749,-1.357,-1.3479,-1.32,-1.3056,-1.2892,-1.2679,-1.2553,-1.2444,-1.229,-1.2056,-1.1833,-1.1582,-1.151,-1.1397,-1.1228,-1.1222,-1.1164,-1.1129,-1.1106,-1.1064,-1.1048,-1.121,-1.1208,-1.1206,-1.1204,0,0,-1.3804,-1.3431,-1.34,-1.3271,-1.2987,-1.284,-1.2666,-1.2429,-1.2324,-1.2119,-1.1963,-1.1676,-1.1621,-1.147,-1.1336,-1.1232,-1.1162,-1.1184,-1.1175,-1.1187,-1.0958,-1.1004,-1.0989,-1.1093,-1.1089,-1.1086,-1.0979,0,-1.3726,-1.3419,-1.3251,-1.3009,-1.2839,-1.2678,-1.2526,-1.2331,-1.2182,-1.2008,-1.1838,-1.1639,-1.1583,-1.149,-1.138,-1.1195,-1.1112,-1.1199,-1.0939,-1.0932,-1.1008,-1.0968,-1.1014,-1.0924,-1.0961,-1.0958,-1.0956,0,-1.3594,-1.3402,-1.3148,-1.2884,-1.2805,-1.2673,-1.2441,-1.228,-1.2053,-1.195,-1.1784,-1.1652,-1.1454,-1.1438,-1.1159,-1.1222,-1.1105,-1.0997,-1.0989,-1.0956,-1.0943,-1.0932,-1.0891,-1.0877,-1.0929,-1.0931,-1.0933,0,-1.3659,-1.3335,-1.3141,-1.3035,-1.2722,-1.2633,-1.2496,-1.2271,-1.2139,-1.1933,-1.1844,-1.1615,-1.1489,-1.1311,-1.1118,-1.1124,-1.0857,-1.0824,-1.0761,-1.0766,-1.0711,-1.0717,-1.0649,-1.0638,-1.0639,-1.0639,-1.0639,0,-1.3589,-1.3439,-1.3167,-1.3047,-1.2872,-1.2676,-1.2505,-1.2354,-1.2156,-1.1998,-1.1841,-1.1694,-1.145,-1.127,-1.1116,-1.0907,-1.0851,-1.0758,-1.0718,-1.0771,-1.0783,-1.069,-1.0691,-1.0635,-1.0636,-1.0637,-1.0637,0,-1.3632,-1.3444,-1.3222,-1.2947,-1.2873,-1.2756,-1.2515,-1.2388,-1.2233,-1.2035,-1.1976,-1.1728,-1.1508,-1.13,-1.1003,-1.0899,-1.0689,-1.0638,-1.077,-1.0748,-1.0697,-1.0704,-1.0565,-1.0536,-1.0549,-1.0549,-1.0549,0,-1.36,-1.3482,-1.3196,-1.3085,-1.2954,-1.2774,-1.2641,-1.2441,-1.2307,-1.204,-1.1944,-1.1715,-1.1522,-1.1177,-1.0964,-1.0736,-1.0677,-1.0644,-1.0641,-1.0698,-1.0674,-1.0683,-1.0669,-1.0648,-1.0649,-1.065,-1.065,0,-1.3562,-1.3476,-1.3295,-1.3081,-1.2929,-1.2748,-1.2561,-1.2475,-1.2238,-1.2094,-1.1873,-1.1724,-1.1425,-1.1197,-1.0946,-1.0794,-1.068,-1.0654,-1.0627,-1.0679,-1.076,-1.0714,-1.0781,-1.0657,-1.0656,-1.0656,-1.0656,-1.0655,-1.3563,-1.3452,-1.3235,-1.3037,-1.2878,-1.2707,-1.2576,-1.2406,-1.2222,-1.197,-1.186,-1.1636,-1.1406,-1.1057,-1.0908,-1.0723,-1.0696,-1.0658,-1.0647,-1.0641,-1.0652,-1.0792,-1.0676,-1.0676,-1.0675,-1.0675,-1.0674,0,-1.3517,-1.3371,-1.3192,-1.294,-1.2783,-1.27,-1.2488,-1.236,-1.2168,-1.1968,-1.1784,-1.1527,-1.1305,-1.1078,-1.0841,-1.0737,-1.0679,-1.0681,-1.0686,-1.0652,-1.069,-1.0737,-1.0733,-1.0733,-1.0733,-1.0733,-1.0733,-1.0733,-1.3474,-1.3281,-1.3169,-1.2891,-1.2741,-1.2529,-1.2415,-1.2254,-1.2094,-1.1819,-1.1638,-1.1494,-1.1279,-1.1027,-1.0817,-1.0755,-1.0673,-1.0691,-1.0614,-1.0653,-1.065,-1.0647,-1.0689,-1.0676,-1.0676,-1.0591,-1.059,-1.059]}]]